Regional Weather Roundup
Issued by NWS

Home | Current Version | Previous Version | Text Only | Print | Product List | Glossary On
Versions: 1 2 3 4 5 6 7 8 9 10 11 12 13 14 15 16 17 18 19 20 21 22 23 24 25 26 27 28 29 30 31 32 33 34 35 36 37 38 39 40 41 42 43 44 45 46 47 48 49 50
551
ASUS44 KLIX 230210
RWRLA
LOUISIANA WEATHER ROUNDUP
NATIONAL WEATHER SERVICE NEW ORLEANS LA
900 PM CDT TUE APR 22 2014

NOTE: "FAIR" INDICATES FEW OR NO CLOUDS BELOW 12,000 FEET WITH NO
      SIGNIFICANT WEATHER AND/OR OBSTRUCTIONS TO VISIBILITY.
      SKY/WX - SKY CONDITION AND SIGNIFICANT WEATHER.
      TMP - AIR TEMPERATURE.    DP   - DEWPOINT TEMPERATURE.
      RH  - RELATIVE HUMIDITY.  PRES - PRESSURE.
      HX  - HEAT INDEX.         WCI  - WIND CHILL INDEX.

*  THESE STATIONS ARE NOT NWS OR FAA STATIONS AND ARE NOT UNDER
   NWS QUALITY CONTROL.

LAZ040-048-061>063-065-066-069-230300-
SOUTHEAST LOUISIANA

CITY           SKY/WX    TMP DP  RH WIND       PRES   REMARKS
N.O. AUDUBON     N/A     70  65  83 MISG        N/A
N.O. INTL ARPT PTCLDY    71  63  75 NW5       29.91R
N.O. LAKEFRONT CLEAR     70  66  87 NW5       29.92R
N.O. DOWNTOWN* FAIR      73  61  64 N3        29.92R
SLIDELL        CLEAR     67  63  87 CALM      29.91R
BATON ROUGE    CLEAR     69  61  75 CALM      29.93R
BOOTHVILLE     CLEAR     70  67  90 W5        29.92R
BELLE CHASSE   PTCLDY    66  62  87 CALM      29.91R
BOGALUSA*        N/A     66  62  88 CALM      29.93R
GALLIANO*      CLEAR     72  67  85 CALM      29.92R
NEW ROADS*     FAIR      67  61  81 CALM      29.93R
GONZALES*      FAIR      66  64  93 CALM      29.92R
HAMMOND*       CLEAR     66  61  82 CALM      29.94R
HOUMA*           N/A     70  65  84 SW3       29.92R
PORT FOURCHON* CLEAR     72  68  88 W9        29.94R

$$

LAZ041-044-053-054-230300-
SOUTHWEST LOUISIANA

CITY           SKY/WX    TMP DP  RH WIND       PRES   REMARKS
LAKE CHARLES   CLEAR     71  68  90 VRB3      29.92R
LAFAYETTE      CLEAR     69  63  81 CALM      29.93R
PATTERSON      CLEAR     68  66  94 SW3       29.96R
SALT POINT       N/A     73  69  87 CALM      29.92R
NEW IBERIA     CLEAR     71  62  73 CALM      29.93R
CHENAULT AIRPK MOCLDY    72  63  73 S5        29.94R

$$

LAZ027-028-230300-
CENTRAL LOUISIANA

CITY           SKY/WX    TMP DP  RH WIND       PRES   REMARKS
FORT POLK      CLEAR     69  61  75 CALM      29.93R
ALEXANDRIA INT CLEAR     68  61  78 CALM      29.92R
ALEXANDRIA     CLEAR     65  61  87 CALM      29.93R

$$

LAZ001-002-230300-
NORTHWEST LOUISIANA

CITY           SKY/WX    TMP DP  RH WIND       PRES   REMARKS
SHREVEPORT     CLEAR     69  61  75 CALM      29.92R
BARKSDALE AFB  CLEAR     71  57  63 SE1       29.92R
DTN SHREVEPORT CLEAR     69  59  70 CALM      29.92R

$$

LAZ014-016-230300-
NORTHEAST LOUISIANA

CITY           SKY/WX    TMP DP  RH WIND       PRES   REMARKS
MONROE         CLEAR     65  60  84 CALM      29.94R
TALLULAH       CLEAR     69  62  78 CALM      29.93R

$$




USA.gov is the U.S. government's official web portal to all federal, state and local government web resources and services.